This is the latest recevied weather packets stored in our database for station/object KD6VEX-1. If no packets are shown the sender has not sent any weather packets the latest 10 day(s).
| Time | Temp. | Humidity | Pressure | Rain* | Wind** | Luminosity | Snow |
|---|---|---|---|---|---|---|---|
| 1778032236 | 17.78° C | 60% | 1014.3 hPa | 0 mm | - | - | - |
| 1778031935 | 18.33° C | 57% | 1014.3 hPa | 0 mm | - | - | - |
| 1778031635 | 19.44° C | 55% | 1014.2 hPa | 0 mm | - | - | - |
| 1778031337 | 19.44° C | 55% | 1014.2 hPa | 0 mm | - | - | - |
| 1778031035 | 19.44° C | 54% | 1014.1 hPa | 0 mm | - | - | - |
| 1778030737 | 20° C | 52% | 1014.3 hPa | 0 mm | - | - | - |
| 1778030135 | 20° C | 52% | 1014.2 hPa | 0 mm | - | - | - |
| 1778029835 | 20° C | 52% | 1014.3 hPa | 0 mm | - | - | - |
| 1778029537 | 20° C | 52% | 1014.3 hPa | 0 mm | - | - | - |
| 1778029235 | 20° C | 52% | 1014.2 hPa | 0 mm | - | - | - |
| 1778028935 | 20.56° C | 51% | 1014.1 hPa | 0 mm | - | - | - |
| 1778028636 | 20.56° C | 50% | 1014.1 hPa | 0 mm | - | - | - |
| 1778028335 | 20.56° C | 50% | 1014.1 hPa | 0 mm | - | - | - |
| 1778028035 | 21.11° C | 49% | 1014 hPa | 0 mm | - | - | - |
| 1778027736 | 21.11° C | 50% | 1013.9 hPa | 0 mm | - | - | - |
| 1778027435 | 21.11° C | 49% | 1014 hPa | 0 mm | - | - | - |
| 1778027135 | 21.11° C | 49% | 1014 hPa | 0 mm | - | - | - |
| 1778026535 | 21.11° C | 49% | 1013.8 hPa | 0 mm | - | - | - |
| 1778026235 | 21.11° C | 48% | 1013.8 hPa | 0 mm | - | - | - |
| 1778025936 | 21.11° C | 48% | 1013.8 hPa | 0 mm | - | - | - |
| 1778025635 | 21.11° C | 47% | 1013.7 hPa | 0 mm | - | - | - |
| 1778025335 | 21.67° C | 47% | 1013.6 hPa | 0 mm | - | - | - |
| 1778025036 | 21.11° C | 48% | 1013.7 hPa | 0 mm | - | - | - |
| 1778024735 | 21.11° C | 48% | 1013.7 hPa | 0 mm | - | - | - |
| 1778024435 | 21.11° C | 46% | 1013.8 hPa | 0 mm | - | - | - |
* Rain latest hour (hover to see other rain measurements)
** Current wind speed in m/s (hover to see current wind gust speed)